#timestamp,LO_Frequency,Hit,StdDev 
1542632415.7,286047001.5,N
1542632435.5,286047001.8,N
1542632455.3,286047001.7,N
1542632475.2,286047004.3,N
1542632495.0,286047004.3,N
1542632495.9,286047004.3,N
1542632515.8,286047001.9,N
1542632535.6,286047001.6,N
1542632555.4,286047002.3,N
1542632575.3,286047000.3,N
1542632595.1,286047002.6,N
1542632615.9,286047000.0,N
1542632635.7,286047002.0,N
1542632655.5,286047001.8,N
1542632675.4,286047004.2,N
1542632695.2,286047004.0,N
1542632715.0,286047003.9,N
1542632715.9,286047003.9,N
1542632735.8,286047004.1,N
1542632755.6,286047006.0,Y
1542632775.5,286047003.2,P
1542632795.3,286047004.0,P
1542632815.1,286047004.1,P
1542632835.9,286047004.2,Y
1542632855.7,286046998.2,P
1542632875.5,286046998.3,N
1542632895.4,286046998.7,N
1542632915.2,286046998.1,N
1542632935.1,286047001.1,N
1542632936.0,286047001.1,N
1542632955.8,286046998.4,N
1542632975.6,286046998.1,N
1542632995.5,286047001.0,N
1542633015.3,286047000.5,N
1542633035.2,286047000.8,N
1542633055.9,286046996.9,N
1542633075.7,286046996.5,N
1542633095.6,286046999.5,N
1542633115.4,286046999.5,N
1542633135.2,286046999.5,N
1542633155.1,286046999.6,N
1542633156.0,286046999.6,N
1542633175.8,286047001.1,N
1542633195.7,286047000.4,N
1542633215.5,286047000.4,N
1542633235.3,286047000.3,N
1542633255.2,286046999.9,N
1542633275.0,286046999.8,N
1542633275.9,286046999.8,N
1542633295.8,286047000.1,N
1542633315.6,286046999.7,N
1542633335.4,286046999.9,N
1542633355.3,286047000.1,N
1542633375.1,286046999.8,N
1542633395.8,286047002.2,N
1542633415.7,286047004.0,Y
1542633435.5,286047001.3,P
1542633455.4,286047004.3,P
1542633475.2,286047004.0,N
1542633495.0,286047001.7,N
1542633495.9,286047001.7,N
1542633515.8,286047002.0,N
1542633535.6,286047002.1,N
1542633555.4,286046999.8,N
1542633575.3,286047002.6,N
1542633595.1,286047002.2,N
1542633615.9,286047001.5,N
1542633635.7,286047003.2,N
1542633655.5,286047003.6,N
1542633675.4,286047001.4,N
1542633695.2,286047001.6,N
1542633715.0,286047004.3,Y
1542633716.0,286047004.3,P
1542633735.8,286047000.9,N
1542633755.6,286047000.1,N
1542633775.5,286047000.2,N
1542633795.3,286047002.6,N
1542633815.1,286046999.7,N
1542633835.9,286047000.1,N
1542633855.7,286047000.4,N
1542633875.6,286047000.7,N
1542633895.4,286047001.2,N
1542633915.2,286047000.1,N
1542633935.1,286046999.8,N
1542633936.0,286046999.8,N
1542633955.8,286047000.2,N
1542633975.6,286046999.8,N
1542633995.5,286047000.2,N
1542634015.3,286047001.9,N
1542634035.2,286047002.0,N
1542634055.9,286047001.7,N
1542634075.7,286047004.0,Y
1542634095.6,286047002.3,P
1542634115.4,286047002.6,P
1542634135.2,286047002.2,N
1542634155.1,286047000.0,N
1542634156.0,286047000.0,N
1542634175.8,286047002.7,N
1542634195.7,286047001.5,N
1542634215.5,286047001.6,N
1542634235.3,286047001.5,N
1542634255.2,286047002.0,N
1542634275.0,286047001.4,N
1542634275.9,286047001.4,N
1542634295.8,286047003.0,Y
1542634315.6,286047002.3,P
1542634335.4,286047002.6,P
1542634355.3,286047002.7,P
1542634375.1,286047002.4,Y
1542634395.8,286046999.4,P
1542634415.7,286046996.9,N
1542634435.5,286046999.5,N
1542634455.4,286046999.0,N
1542634475.2,286046998.1,N
1542634495.0,286046999.0,N
1542634495.9,286046999.0,N
1542634515.8,286046999.1,N
1542634535.6,286046998.6,N
1542634555.4,286046998.4,N
1542634575.3,286046999.4,N
1542634595.1,286046999.5,N
1542634615.9,286046999.5,N
1542634635.3,286046998.2,N
1542634655.1,286046998.8,N
1542634675.9,286047001.1,N
1542634695.7,286047000.5,N
1542634715.5,286047000.9,N
1542634735.4,286046998.1,N
1542634755.2,286046999.6,N
1542634775.0,286046998.4,N
1542634776.0,286046998.4,N
1542634795.8,286046998.8,N
1542634815.6,286046998.7,N
1542634835.5,286046998.9,N
1542634855.3,286046998.1,N
1542634875.1,286046998.4,N
1542634895.9,286046998.7,N
1542634915.7,286047000.3,N
1542634935.6,286046998.1,N
1542634955.4,286046999.0,N
1542634975.2,286046998.9,N
1542634995.1,286046998.3,N
1542634996.0,286046998.3,N
1542635015.8,286046998.1,N
1542635035.7,286047001.2,N
1542635055.5,286046998.2,N
1542635075.3,286046999.6,N
1542635095.2,286046999.3,N
1542635115.0,286046998.7,N
1542635115.9,286046998.7,N
1542635135.7,286047000.4,N
1542635155.6,286046999.7,N
1542635175.4,286047000.9,N
1542635195.3,286046998.7,N
1542635215.1,286046998.9,N
1542635216.0,286046998.9,N
1542635235.8,286046999.1,N
1542635255.7,286046999.1,N
1542635275.5,286046998.2,N
1542635295.4,286046998.2,N
1542635315.2,286046998.3,N
1542635335.0,286046999.4,N
1542635335.9,286046999.4,N
1542635355.8,286046998.6,N
1542635375.6,286046999.0,N
1542635395.5,286047000.8,N
1542635415.3,286046998.1,N
1542635435.2,286047001.2,N
1542635455.9,286047000.8,N
1542635475.7,286046998.4,N
1542635495.6,286046999.1,N
1542635515.4,286046998.8,N
1542635535.2,286046998.5,N
1542635555.1,286046999.2,N
1542635556.0,286046999.2,N
1542635575.8,286046999.3,N
1542635595.2,286046998.2,N
1542635615.1,286046999.3,N
1542635616.0,286046999.3,N
1542635635.8,286046998.4,N
1542635655.7,286046999.0,N
1542635675.5,286046999.5,N
1542635695.3,286046999.0,N
1542635715.2,286046998.8,N
1542635735.0,286046998.9,N
1542635735.9,286046998.9,N
1542635755.7,286047000.4,N
1542635775.6,286047000.5,N
1542635795.4,286047001.0,N
1542635815.3,286047001.2,N
1542635835.1,286047000.3,N
1542635836.0,286047000.3,N
1542635855.8,286047002.7,N
1542635875.7,286047000.1,N
1542635895.5,286047001.0,N
1542635915.3,286047000.3,N
1542635935.2,286047001.0,N
1542635955.0,286047000.5,N
1542635955.9,286047000.5,N
1542635975.8,286046999.8,N
1542635995.6,286047002.0,N
